Lid_Strength_Index
14 14 15 15 14 14 14 15 15 15 15 14 14 14 14 14 14 15 15 15 15 15 15 15 15 15 16 16 15 16 16 16 18 17 16 16 15 15 15 15 14 15 14
13 14 14 15 14 14 14 15 15 15 15 14 15 14 14 14 15 15 15 15 15 15 15 15 16 15 16 16 16 16 16 16 17 17 16 16 16 15 15 16 15 14 15
14 14 14 14 14 14 13 14 14 14 15 15 15 14 14 14 15 15 15 15 15 15 15 15 15 15 16 16 16 16 16 15 16 17 18 16 16 16 16 16 16 16 15
15 15 15 14 14 13 13 14 14 14 16 16 16 16 17 16 15 15 14 15 15 15 15 15 15 15 15 15 15 16 16 17 17 18 18 18 17 16 17 18 19 17 18
15 15 15 14 14 14 14 14 14 14 15 15 16 17 16 15 14 15 15 16 16 15 14 14 14 15 13 14 16 16 17 18 18 18 19 19 20 19 19 19 20 20 20
15 15 15 15 15 14 14 14 15 15 15 15 15 16 16 14 12 12 14 15 14 15 16 16 16 16 14 13 14 14 15 18 18 19 19 20 20 19 19 21 22 24 25
16 16 15 15 15 15 14 15 15 15 15 15 16 16 16 15 11 11 13 15 16 17 17 17 17 17 17 17 15 15 16 15 15 17 20 19 20 20 22 24 24 25 26
16 15 16 16 16 16 15 15 15 15 16 16 17 17 17 15 11 11 14 18 19 20 20 20 20 21 19 19 19 20 19 18 17 18 20 20 20 20 22 23 27 28 27
16 16 16 16 16 17 17 17 17 17 17 17 17 16 15 13 11 13 16 19 20 21 21 21 20 21 16 15 20 20 21 22 20 20 20 20 20 21 21 26 30 30 31
17 16 16 16 16 17 18 18 18 17 17 16 15 14 15 13 12 13 17 20 21 22 23 22 16 20 15 16 20 21 25 26 26 29 28 28 26 26 23 26 27 31 31
19 18 17 17 17 17 18 19 18 16 16 16 17 16 16 16 14 14 16 20 21 22 23 24 22 15 15 16 18 20 22 28 30 34 34 31 30 29 28 28 28 29 31
19 19 19 18 17 17 18 19 19 18 18 18 19 18 18 17 15 15 15 17 18 21 22 22 19 17 19 19 21 21 24 28 34 36 37 37 36 32 31 30 30 30 29
21 20 20 19 18 18 19 19 19 19 19 19 20 21 21 19 16 14 15 16 17 20 19 18 19 21 23 25 23 24 29 32 35 38 39 38 37 32 35 36 31 32 31
21 21 21 20 19 19 18 19 19 20 21 22 22 23 23 22 22 21 21 21 20 23 23 24 23 24 24 27 29 29 30 31 34 36 36 34 36 34 32 32 32 31 32
21 21 21 20 20 20 20 20 20 20 19 21 22 22 23 23 21 19 22 23 24 25 28 28 29 30 31 31 32 32 32 32 33 33 35 35 33 33 33 32 32 33 34
21 21 21 20 20 19 19 19 15 16 16 17 17 19 19 17 17 17 19 20 22 25 31 31 32 32 32 33 33 34 34 34 34 34 34 35 35 34 34 33 33 34 33
21 21 20 19 19 19 19 19 19 17 15 15 16 16 17 18 19 19 20 22 25 28 33 33 33 33 33 34 35 35 35 34 34 35 35 35 34 35 35 35 34 33 32
22 21 20 20 20 19 19 19 20 21 22 22 17 18 18 19 21 22 23 28 33 32 34 35 35 35 35 37 38 39 37 36 37 36 36 36 37 37 36 35 33 33 31
24 24 23 23 24 24 24 25 26 26 27 28 27 26 23 21 22 24 26 33 35 35 36 36 35 38 41 43 42 42 43 41 38 38 40 38 38 38 36 34 33 31 31
24 23 23 24 24 25 26 26 27 28 29 29 30 31 31 31 33 34 33 34 35 36 35 37 39 44 46 46 45 45 44 43 41 42 39 38 37 36 35 34 33 32 31
24 24 24 24 25 26 27 28 28 28 29 30 30 30 28 33 34 35 35 36 37 37 37 39 43 46 47 47 47 45 45 41 40 40 38 38 35 36 34 33 32 31 31
24 25 25 26 27 27 28 28 29 29 30 31 31 26 27 34 35 35 36 36 38 40 43 45 45 45 44 44 42 43 43 41 40 40 39 37 35 34 33 33 32 31 31
25 26 27 28 28 28 29 30 30 31 32 32 33 33 34 36 36 38 39 41 43 45 45 47 46 42 42 42 42 43 42 39 37 36 37 36 35 33 32 32 31 31 31
26 26 28 28 28 29 30 31 31 32 33 34 34 35 36 38 41 42 42 45 46 46 47 46 45 43 40 40 41 41 40 38 36 36 37 36 34 32 31 31 30 30 30
27 27 28 29 30 31 31 32 33 34 34 34 37 38 42 43 44 45 47 48 48 47 43 43 43 41 40 40 39 39 37 33 33 32 33 33 33 32 32 31 30 30 29
28 28 29 30 31 31 32 33 35 34 36 37 37 42 44 45 47 48 47 47 45 44 42 41 40 40 40 38 37 34 31 26 26 25 28 30 30 29 27 26 25 25 26